SCP
0 0 0 0 0 -0 0 0 -0 0 0 -0 -0 -0 -0 0 0 0 0 0 0 0 0 0 0 0 0 0 0 0 0 -0 0 -0 0 0 0 0 0 0 0 0 0 0 0 0 0 0 0 0 0 0 0 0
0 0 0 0 0 -0 0 0 -0 -0 0 -0 -0 -0 -0 0 0 0 0 0 0 0 0 0 0 0 0 0 0 0 0 0 0 0 0 0 0 -0 -0 0 0 0 0 0 0 -0 0 0 0 0 0 0 0 0
0 0 0 0 0 -0 0 0 -0 0 0 0 -0 -0 0 0 0 0 0 0 0 0 0 0 0 0 0 0 0 0 0 0 0 0 0 0 0 0 0 0 0 0 0 0 -0 -0 0 0 0 0 0 0 -0 -0
0 0 0 0 0 -0 0 0 -0 0 -0 0 0 0 0 0 0 0 0 0 0 0 0 0 0 0 0 0 0 0 0 0 0 0 0 0 0 0 0 0 0 0 0 0 -0 0 0 0 0 0 0 0 0 0
0 0 0 0 0 -0 0 0 -0 -0 -0 -0 0 0 0 0 0 0 0 0 0 0 0 0 -0 0 0 0 0 0 0 0 0 0 0 0 0 0 0 0 0 0 0 0 0 0 0 0 0 0 0 0 0 0
0 0 0 0 0 -0 0 0 0 -0 -0 -0 0 0 0 0 0 0 0 0 0 0 0 0 0 0 -0 0 0 0 0 0 0 0 0 0 0 0 0 0 0 0 0 0 0 0 0 0 0 0 0 0 0 0
0 0 0 0 0 -0 0 0 0 0 -0 0 0 0 0 0 0 0 0 0 0 0 0 0 0 0 0 0 0 0 0 0 0 0 0 0 0 0 0 0 0 0 0 0 0 0 0 0 0 0 0 0 0 0
0 0 0 0 -0 -0 0 0 0 0 -0 0 0 0 0 0 0 0 0 0 0 0 0 0 0 0 0 0 0 0 0 0 0 0 0 0 0 0 0 0 0 0 0 0 0 0 0 0 0 0 0 0 0 0
0 0 0 -0 -0 0 0 0 0 0 -0 0 0 0 0 0 0 0 0 0 0 0 0 0 0 0 0 0 0 0 0 0 0 0 0 0 0 0 0 0 0 0 0 0 0 0 0 0 0 0 0 0 0 0
0 0 0 -0 -0 0 0 0 0 0 0 -0 0 0 0 0 0 0 0 0 0 0 0 0 0 0 0 0 0 0 0 0 0 0 0 0 0 0 0 0 0 -0 0 0 0 0 0 0 0 0 0 0 0 0
0 0 -0 -0 -0 0 0 0 -0 0 -0 -0 0 0 0 -0 0 0 0 0 0 0 0 0 0 0 0 0 0 0 0 0 0 0 0 -0 -0 0 0 -0 0 0 0 0 0 0 0 0 0 0 0 0 0 0
0 0 -0 -0 0 0 0 -0 0 0 0 0 0 0 0 0 0 0 0 0 0 0 0 0 0 0 0 0 0 0 0 0 0 0 -0 -0 -0 -0 -0 0 0 0 0 0 0 0 0 0 0 0 0 0 0 0
-0 -0 -0 0 0 0 0 0 -0 0 0 0 0 0 0 0 0 0 0 0 0 0 0 0 0 0 0 0 0 0 0 0 0 0 0 0 0 0 0 0 0 0 0 0 0 0 0 0 0 0 0 0 0 0
-0 -0 -0 0 0 0 0 0 -0 0 0 0 0 0 0 0 0 0 0 0 0 0 0 0 0 0 0 0 0 0 0 0 0 0 0 0 0 0 0 0 0 0 0 0 0 0 0 0 0 0 0 0 0 0
-0 -0 0 0 0 0 0 -0 -0 0 0 0 0 0 0 0 0 0 0 0 0 0 0 0 0 0 0 0 0 0 0 0 0 0 0 0 0 0 0 0 0 0 0 0 0 0 0 0 0 0 0 0 0 0
-0 -0 0 0 0 0 -0 0 0 0 0 0 0 0 0 0 0 0 0 0 0 0 0 0 0 0 0 0 0 0 0 0 0 0 0 0 0 0 0 0 0 0 0 0 0 0 0 0 0 0 0 0 0 0
-0 0 -0 0 0 0 0 0 0 0 0 0 0 0 0 0 0 0 0 0 0 0 0 0 0 0 0 0 0 0 0 0 0 0 0 0 0 0 0 0 0 0 0 0 0 0 0 0 0 0 0 0 0 0
0 0 0 -0 -0 0 0 0 0 0 0 0 0 0 0 0 0 0 0 0 0 0 0 0 0 0 0 0 0 0 0 0 0 0 0 0 0 0 0 0 0 0 0 0 0 0 0 0 0 0 0 0 0 0
0 0 0 0 -0 0 0 0 0 0 0 0 0 0 0 0 0 0 0 0 0 0 0 0 0 0 0 0 0 0 0 0 0 0 0 0 0 0 0 0 0 0 0 0 0 0 0 0 0 0 0 0 0 0
0 0 -0 -0 0 0 0 0 0 0 0 0 0 0 0 0 0 0 0 0 0 0 0 0 0 0 0 0 0 0 0 0 0 0 0 0 0 0 0 0 0 0 0 0 0 0 0 0 0 0 0 -0 0 0
0 0 -0 0 0 -0 0 0 0 0 0 0 0 0 0 0 0 0 0 0 0 0 0 0 0 0 0 0 0 0 0 0 0 0 0 0 0 0 0 0 0 0 0 0 0 -0 -0 0 0 0 0 0 0 0
0 0 0 0 -0 -0 0 0 0 0 0 0 0 0 0 0 0 0 0 0 0 0 0 0 0 0 0 0 0 0 0 0 0 0 0 0 0 0 0 0 0 0 0 0 0 -0 -0 0 0 0 0 0 0 0
0 0 0 0 -0 0 0 0 0 0 0 0 0 0 0 0 0 0 0 0 0 0 0 0 0 0 0 0 0 0 0 0 0 0 0 0 0 0 0 0 0 0 0 0 0 0 -0 0 0 0 0 0 0 0
0 0 0 -0 -0 0 0 0 0 0 0 0 0 0 0 0 0 0 0 0 0 0 0 0 0 0 0 0 0 0 0 0 0 0 0 0 0 0 0 0 0 0 0 0 0 0 0 -0 0 0 0 0 0 0
0 0 0 0 0 0 0 0 0 0 0 0 0 0 0 0 0 0 0 0 0 0 0 0 0 0 0 0 0 0 0 0 0 0 0 0 0 0 0 0 0 0 0 0 0 0 0 0 0 -0 0 0 0 0
0 0 0 0 0 0 0 0 0 0 0 0 0 0 0 0 0 0 0 0 0 0 0 0 0 0 0 0 0 0 0 0 0 0 0 0 0 0 0 0 0 0 0 0 0 0 0 -0 -0 0 0 0 0 0
0 0 0 0 0 0 0 0 0 0 0 0 0 0 0 0 0 0 0 0 0 0 0 0 0 0 0 0 -0 0 0 0 0 0 -0 0 0 0 0 0 0 0 0 0 0 0 0 0 0 0 0 0 -0 0
0 0 0 0 0 0 -0 -0 0 0 0 0 0 0 0 0 0 0 0 0 0 0 0 0 0 0 0 0 0 0 0 0 0 0 0 0 0 0 0 0 0 0 0 0 0 0 0 0 0 0 0 0 0 0
0 0 0 0 0 0 -0 -0 -0 0 -0 0 0 0 0 0 0 0 0 0 0 0 0 0 0 0 0 0 0 0 0 0 0 0 0 0 -0 -0 0 0 0 0 0 0 0 0 0 0 0 0 0 0 0 0
0 0 0 0 -0 -0 -0 0 -0 0 0 0 0 0 0 0 0 0 0 0 0 0 0 0 0 0 0 0 0 0 0 0 0 0 0 0 0 0 0 0 0 0 0 0 0 0 0 0 0 0 0 0 0 0
0 0 0 0 0 0 0 -0 0 0 0 0 0 0 0 0 0 0 0 0 0 0 0 0 0 0 0 0 0 0 0 0 0 0 0 0 0 0 0 0 0 0 0 0 0 0 0 0 0 0 0 0 0 0
0 0 0 0 0 0 0 0 0 0 0 0 0 0 0 0 0 0 0 0 0 0 0 0 0 0 0 0 0 0 0 0 0 0 0 0 0 0 0 0 0 0 0 0 0 0 0 0 0 0 0 0 0 0
-0 -0 0 0 0 0 0 0 0 0 0 0 0 0 0 0 0 0 0 0 0 0 0 0 0 0 0 0 0 0 0 0 0 0 0 0 0 0 0 0 0 0 0 0 0 0 0 0 0 0 0 0 0 0
Wind_Speed_500mb
37 25 27 28 18 16 20 14 15 15 15 14 11 7 7 7 9 14 14 15 8 4 12 12 13 9 8 8 7 10 5 4 7 8 6 5 5 7 4 5 4 7 9 7 5 7 13 6 6 6 6 28 33 36
33 23 22 24 15 16 16 12 13 14 15 14 13 10 10 13 9 10 13 16 17 7 6 21 22 16 11 5 16 13 3 8 11 8 3 5 5 6 9 3 1 3 10 8 12 9 9 15 11 6 9 17 29 37
29 20 21 20 15 16 13 11 10 13 14 14 14 12 8 9 11 13 16 16 18 10 13 17 21 23 24 21 13 8 9 11 11 8 13 6 6 9 9 9 5 5 10 4 7 7 25 32 12 10 9 15 22 27
29 22 20 19 15 15 13 13 13 11 13 12 13 13 10 9 9 12 16 15 11 9 5 2 12 12 22 27 24 21 10 19 22 15 7 6 6 19 7 7 8 10 20 11 10 19 24 20 10 15 14 27 36 40
28 20 20 17 16 13 12 13 14 13 13 13 12 13 12 11 12 14 13 5 6 7 6 16 24 14 30 28 31 31 24 29 30 12 5 6 10 9 2 3 8 24 14 11 11 19 10 7 2 8 19 29 34 42
25 19 17 19 14 12 10 13 14 14 13 13 14 15 14 13 12 12 2 1 4 9 10 7 14 9 7 35 27 40 38 36 24 13 12 12 11 15 8 7 17 36 35 37 4 11 16 5 8 12 14 24 35 38
19 21 19 20 15 11 8 11 13 13 12 13 14 17 17 15 10 4 3 8 7 8 5 13 19 6 13 10 35 39 43 7 9 8 9 13 16 24 6 8 11 24 27 34 32 23 20 24 17 13 23 31 34 36
20 26 20 21 15 10 8 9 12 13 12 12 14 16 17 7 3 8 7 15 9 4 2 2 9 13 5 1 8 19 16 19 6 4 3 5 13 4 6 23 19 19 16 23 31 34 32 29 26 21 22 23 28 35
25 29 23 24 16 11 8 9 12 12 13 14 15 10 3 8 4 11 11 7 6 3 1 1 3 6 9 4 7 7 10 3 10 13 14 18 4 10 13 17 19 23 15 8 11 12 17 25 18 16 18 21 22 30
26 31 22 24 15 12 9 10 13 15 13 14 11 4 3 7 11 4 4 3 4 4 4 6 7 6 8 5 1 3 6 4 4 8 8 3 5 17 12 10 26 19 17 15 13 13 17 18 12 10 15 21 20 27
28 25 22 20 15 12 11 14 16 18 11 5 4 3 7 9 2 3 1 2 3 3 9 8 11 6 5 2 4 6 3 4 3 4 4 3 5 1 11 23 11 19 22 24 20 15 13 12 11 13 18 18 16 19
28 23 21 16 14 12 14 18 21 16 7 4 6 11 4 1 2 2 4 1 4 6 5 5 3 7 4 4 1 5 4 0 4 4 3 7 5 11 8 8 7 21 23 25 26 19 16 16 16 19 19 14 12 12
21 18 13 11 10 15 23 24 18 13 11 8 2 1 2 2 6 2 5 5 4 5 5 4 5 2 0 5 5 4 5 3 5 4 6 7 17 12 18 14 14 12 14 21 26 25 23 21 19 20 20 15 10 1
13 7 5 8 14 15 12 10 12 15 7 5 4 6 5 5 8 9 9 8 5 8 10 7 3 1 2 5 2 5 2 2 4 7 5 6 24 26 24 20 22 21 25 26 29 30 30 29 24 21 21 17 14 12
4 2 4 2 4 6 8 14 13 7 4 6 6 6 11 14 9 7 10 9 5 6 0 4 5 0 3 4 1 4 1 2 6 8 7 14 26 34 33 24 22 25 30 30 32 35 34 32 31 25 21 19 17 12
4 9 8 5 3 2 3 5 7 6 6 7 10 6 14 4 9 11 14 14 5 1 5 5 5 3 1 3 1 1 2 6 7 7 22 29 30 35 33 29 25 30 36 40 27 20 31 34 28 28 25 23 19 10
8 5 1 4 5 7 9 10 7 7 7 7 12 20 25 19 17 15 16 11 12 6 3 8 2 2 3 1 3 7 8 6 20 30 27 27 28 19 24 24 27 30 34 42 50 46 29 27 34 23 32 25 24 17
2 6 13 15 12 10 7 10 7 7 10 17 11 10 18 21 16 16 15 19 15 10 10 4 8 2 4 4 5 7 9 15 13 17 19 17 15 18 22 23 21 22 25 28 25 27 30 34 27 33 30 21 25 23
14 18 14 9 10 6 5 7 9 8 18 13 17 23 16 14 15 18 12 22 18 11 12 4 4 6 7 13 12 10 9 7 10 12 13 12 12 15 19 21 24 25 22 22 24 24 31 34 37 29 21 24 22 22
16 16 7 4 8 5 6 7 9 10 10 5 11 9 8 9 10 13 14 25 29 20 10 4 10 10 12 8 10 11 9 11 11 13 12 8 9 14 20 24 24 23 24 21 24 25 28 10 6 15 29 23 16 15
12 3 3 7 6 13 9 8 11 11 10 7 7 6 7 11 9 13 17 21 21 15 18 22 29 18 14 11 8 13 15 18 19 18 16 7 7 14 21 21 20 22 27 25 19 22 27 18 17 27 27 22 18 16
9 12 9 12 7 8 12 15 11 9 8 8 6 6 8 6 5 1 3 15 11 16 21 25 17 17 14 16 15 17 11 16 14 7 5 4 10 12 15 18 20 24 27 22 18 19 19 19 16 26 29 18 18 19
13 7 7 8 7 8 9 10 9 8 5 4 4 5 4 3 2 6 7 9 10 15 18 17 15 12 12 17 15 8 10 5 1 3 5 8 10 10 15 22 22 16 18 18 16 19 38 40 41 30 20 21 21 23
4 5 6 7 12 10 6 8 11 7 6 3 3 3 3 3 8 2 5 7 11 19 25 22 15 14 17 18 9 3 8 7 3 8 11 6 8 13 23 26 23 21 21 24 26 19 15 16 14 11 16 17 17 22
5 9 8 11 9 6 6 6 5 6 7 5 4 5 3 1 2 3 5 7 20 31 27 19 16 14 14 20 17 19 13 10 10 13 14 7 10 16 26 31 33 33 33 26 24 26 20 17 15 9 14 14 15 16
3 10 14 8 6 8 6 5 2 6 5 6 6 1 1 3 2 8 6 7 28 38 30 20 23 25 18 14 23 23 21 18 17 15 17 14 10 7 11 13 18 20 18 18 17 16 15 19 18 11 9 10 9 15
6 10 14 14 11 9 9 9 7 5 6 9 6 5 3 4 8 8 7 7 16 26 19 8 14 20 27 30 31 27 21 19 16 16 19 16 15 11 10 8 7 9 8 6 10 12 13 14 15 14 11 16 19 17
17 8 10 6 10 11 6 5 4 6 5 9 17 8 8 9 7 2 2 8 14 20 20 25 22 19 21 27 27 25 25 20 15 17 16 14 12 9 6 6 4 9 7 3 3 4 9 10 11 13 15 14 13 10
13 14 12 10 10 9 10 13 11 12 10 20 12 8 10 10 7 6 9 17 24 26 35 40 34 30 30 28 25 24 21 18 17 12 14 18 19 17 20 14 4 10 8 7 7 6 7 7 7 7 9 5 1 3
12 23 13 10 9 11 14 17 11 12 17 23 14 9 8 8 11 10 16 28 32 31 31 34 33 30 27 27 30 30 31 26 19 12 8 11 20 24 19 12 7 5 9 3 3 5 4 2 4 3 8 3 1 3
8 18 13 13 11 25 39 36 33 22 16 13 18 14 8 2 5 15 27 24 28 32 34 34 33 30 26 25 28 21 20 21 31 28 14 11 22 22 17 11 9 7 3 4 4 3 2 5 6 6 7 8 4 7
18 23 13 7 9 13 12 11 9 9 7 8 9 11 7 8 9 12 26 35 41 42 34 25 22 19 15 16 16 11 6 6 6 29 33 23 19 18 15 14 16 15 15 12 9 8 7 5 7 6 5 8 6 7
19 16 25 15 8 6 8 8 6 1 1 1 2 3 6 7 8 10 15 33 49 45 36 26 19 10 12 18 20 21 19 14 8 16 29 36 27 18 12 10 14 15 13 16 15 13 11 8 5 4 6 7 7 3
Wind_Direction_500mb
327 320 319 325 313 325 333 334 349 357 357 351 337 307 292 332 11 7 10 17 0 251 203 198 196 177 173 187 152 168 72 4 59 73 119 191 127 220 75 240 198 170 135 177 85 179 257 182 35 188 293 316 314 316
318 317 310 320 298 326 330 326 341 357 356 346 341 332 294 275 297 327 331 345 339 277 249 219 222 235 243 244 183 169 198 165 157 98 125 114 146 168 167 228 212 223 174 181 179 210 149 155 203 229 331 296 299 301
309 304 299 300 289 316 321 305 321 352 353 353 349 345 331 286 292 303 308 323 334 294 274 250 245 238 216 212 218 157 194 184 172 134 142 139 155 162 176 230 177 254 171 177 50 207 209 216 216 209 2 340 325 312
303 297 286 285 278 308 317 304 297 324 341 348 346 344 346 330 327 316 312 325 338 321 328 270 222 236 222 219 230 238 249 175 160 156 128 146 157 194 198 178 169 195 155 191 250 257 245 252 220 227 291 317 318 320
294 287 265 269 270 298 314 306 297 304 312 332 329 331 334 334 340 326 320 339 1 7 288 295 299 259 229 214 224 229 225 190 171 158 135 208 156 137 119 117 233 189 182 174 218 199 156 179 20 314 309 319 318 318
287 266 248 250 260 287 310 306 308 306 309 312 317 312 320 335 337 328 311 16 11 11 328 335 333 326 313 217 220 220 221 203 194 184 188 199 188 167 155 210 250 210 216 221 203 195 206 225 299 326 307 318 319 317
262 239 248 239 251 272 293 307 316 317 321 314 315 314 313 321 323 313 16 345 340 333 330 323 330 306 335 219 208 210 205 218 248 224 224 176 187 183 145 202 230 213 231 230 232 248 269 263 271 286 304 310 314 317
241 236 241 233 241 259 280 303 321 332 335 329 325 323 325 338 75 60 16 318 257 290 13 337 281 327 347 248 195 216 202 209 218 201 307 257 140 210 240 242 246 233 226 227 241 247 259 275 279 286 303 308 317 321
222 227 227 228 235 248 265 298 314 331 332 335 335 341 104 52 44 344 2 31 161 218 19 99 185 279 342 279 221 191 193 191 209 190 200 169 156 216 226 266 240 194 191 162 182 226 251 251 264 285 295 307 309 325
223 218 202 216 231 244 260 291 306 323 322 336 344 15 61 348 341 8 40 57 140 192 243 229 234 269 324 322 335 85 12 16 341 37 351 359 264 260 266 312 298 213 206 211 227 245 246 239 250 266 298 311 310 321
215 194 195 211 232 245 264 283 300 313 305 314 340 322 321 324 5 346 236 168 157 257 221 241 224 270 316 331 11 32 74 60 345 333 354 298 287 65 197 234 227 246 229 232 244 255 273 246 253 279 304 307 293 311
162 183 197 219 237 258 276 282 298 287 237 275 306 295 309 359 60 317 322 290 200 246 216 214 241 259 314 332 286 20 92 117 332 293 330 332 269 199 316 12 264 259 247 241 241 253 275 259 271 273 290 293 283 314
173 186 205 232 262 279 283 283 272 241 219 272 226 351 336 167 34 127 337 311 292 225 221 241 315 334 202 38 74 65 8 33 316 354 320 240 293 325 279 297 308 336 305 265 249 255 265 262 258 265 275 277 267 267
166 186 243 286 292 284 279 252 199 183 209 214 189 325 181 221 241 188 193 201 252 255 303 307 134 103 55 65 91 85 258 111 10 12 274 262 326 331 324 294 286 300 304 294 267 261 258 255 256 258 270 263 254 229
147 351 338 68 81 88 112 134 152 189 243 208 190 223 219 236 238 248 251 263 278 279 351 113 85 89 18 104 73 72 106 260 204 233 238 290 332 332 329 303 289 304 313 307 279 261 258 256 250 254 263 256 241 238
38 99 105 106 92 120 175 214 238 266 248 219 225 246 237 244 258 244 238 258 217 254 136 87 82 28 296 141 127 190 83 241 256 237 302 317 328 329 326 321 292 284 282 286 313 288 261 259 256 253 251 245 228 212
106 133 19 346 316 297 255 246 248 234 244 232 243 240 252 267 256 260 223 204 172 160 145 108 22 266 121 67 294 169 206 232 313 324 324 323 326 337 348 341 328 315 303 294 297 275 278 252 237 284 242 233 217 199
17 312 304 306 296 297 266 212 243 240 254 245 239 255 243 244 249 265 226 191 168 186 154 167 143 108 235 218 255 236 264 317 334 333 338 339 345 347 346 344 334 319 314 319 315 279 285 272 235 248 241 222 212 201
323 313 314 293 266 244 252 231 226 257 247 261 261 268 271 264 247 247 230 195 167 141 110 322 143 199 231 217 232 254 269 268 315 328 337 340 342 347 347 344 339 337 339 349 342 311 291 273 259 228 214 225 205 199
323 317 314 284 240 236 250 230 222 256 261 251 255 257 254 249 284 208 182 183 161 134 105 212 225 231 230 261 266 248 247 252 266 277 294 303 335 355 357 3 4 11 7 3 9 15 345 307 86 202 193 195 172 182
331 344 319 328 269 233 262 231 234 247 279 268 285 264 273 277 259 210 201 185 185 190 172 246 257 252 241 221 220 217 247 263 282 284 311 316 0 10 10 11 11 5 6 13 1 7 22 6 24 110 106 108 120 125
296 308 293 299 253 249 258 233 244 286 262 266 253 248 262 270 277 332 192 189 216 210 217 243 215 222 229 224 223 232 257 290 284 305 336 49 21 25 14 1 353 356 4 16 5 353 345 38 118 121 125 126 117 113
274 269 255 245 253 243 256 225 239 229 205 228 214 252 238 261 226 287 239 230 226 199 201 190 194 206 214 207 217 241 298 310 127 102 96 39 42 44 7 344 335 344 23 31 35 41 61 64 94 122 124 112 125 125
214 246 243 241 222 264 254 237 221 217 181 206 229 266 235 251 311 238 256 250 207 191 188 191 205 201 183 179 179 146 98 80 64 108 99 81 75 54 26 34 54 63 65 72 60 51 95 79 80 97 84 105 119 137
247 228 226 252 233 249 254 262 209 167 221 207 220 276 282 318 1 270 243 252 193 182 186 192 201 197 178 162 149 137 111 84 82 115 113 103 81 83 73 71 74 78 74 74 86 68 78 77 83 67 91 74 86 125
201 217 196 224 239 198 247 284 235 200 170 197 226 220 190 67 289 248 240 240 198 192 191 204 201 181 162 145 155 152 141 119 93 103 124 101 89 99 81 90 79 74 66 67 60 50 60 60 58 62 73 61 100 137
246 259 229 232 255 275 286 269 262 218 208 202 183 159 138 238 247 251 248 228 198 200 194 184 194 193 171 152 145 144 138 118 97 91 118 118 101 105 61 52 91 67 58 69 64 52 38 37 47 61 93 85 116 106
236 255 200 223 230 237 249 265 245 228 211 178 150 183 198 210 245 275 230 173 182 182 167 158 165 166 165 159 157 161 165 161 134 105 117 151 166 168 148 117 60 355 4 69 94 65 45 66 64 74 85 102 90 81
227 219 214 249 243 250 244 218 233 218 211 185 181 204 223 215 253 285 257 193 185 184 169 164 169 170 175 176 183 187 193 188 181 155 143 155 158 157 149 139 77 9 56 99 101 86 87 62 52 73 86 112 81 52
237 212 215 222 199 224 237 225 247 263 244 227 234 257 254 266 286 233 189 186 186 186 180 172 175 180 187 187 194 201 215 230 244 244 169 181 172 158 153 158 154 86 64 63 58 76 92 25 17 34 21 60 70 355
223 195 210 225 239 247 252 263 268 264 241 239 245 243 253 286 226 198 188 195 186 180 181 185 194 203 210 215 215 211 222 239 243 236 218 171 175 176 175 179 204 218 202 96 102 103 32 349 320 324 3 14 30 27
205 208 202 219 248 240 238 216 213 221 240 235 225 213 190 169 154 171 217 220 203 202 200 208 204 208 209 222 222 217 240 245 241 228 210 197 195 194 198 209 216 218 233 238 245 259 288 316 334 332 338 359 350 5
210 216 217 239 236 222 207 194 200 266 122 353 291 238 206 205 220 206 226 222 222 220 216 229 230 236 250 243 236 238 245 252 229 189 204 210 221 213 210 207 196 191 215 229 241 260 271 276 317 15 17 10 354 5
Wind_Speed_850mb
37 25 27 28 18 16 20 14 15 15 15 14 11 7 7 7 9 14 14 15 8 4 12 12 13 9 8 8 7 10 5 4 7 8 6 5 5 7 4 5 4 7 9 7 5 7 13 6 6 6 6 28 33 36
33 23 22 24 15 16 16 12 13 14 15 14 13 10 10 13 9 10 13 16 17 7 6 21 22 16 11 5 16 13 3 8 11 8 3 5 5 6 9 3 1 3 10 8 12 9 9 15 11 6 9 17 29 37
29 20 21 20 15 16 13 11 10 13 14 14 14 12 8 9 11 13 16 16 18 10 13 17 21 23 24 21 13 8 9 11 11 8 13 6 6 9 9 9 5 5 10 4 7 7 25 32 12 10 9 15 22 27
29 22 20 19 15 15 13 13 13 11 13 12 13 13 10 9 9 12 16 15 11 9 5 2 12 12 22 27 24 21 10 19 22 15 7 6 6 19 7 7 8 10 20 11 10 19 24 20 10 15 14 27 36 40
28 20 20 17 16 13 12 13 14 13 13 13 12 13 12 11 12 14 13 5 6 7 6 16 24 14 30 28 31 31 24 29 30 12 5 6 10 9 2 3 8 24 14 11 11 19 10 7 2 8 19 29 34 42
25 19 17 19 14 12 10 13 14 14 13 13 14 15 14 13 12 12 2 1 4 9 10 7 14 9 7 35 27 40 38 36 24 13 12 12 11 15 8 7 17 36 35 37 4 11 16 5 8 12 14 24 35 38
19 21 19 20 15 11 8 11 13 13 12 13 14 17 17 15 10 4 3 8 7 8 5 13 19 6 13 10 35 39 43 7 9 8 9 13 16 24 6 8 11 24 27 34 32 23 20 24 17 13 23 31 34 36
20 26 20 21 15 10 8 9 12 13 12 12 14 16 17 7 3 8 7 15 9 4 2 2 9 13 5 1 8 19 16 19 6 4 3 5 13 4 6 23 19 19 16 23 31 34 32 29 26 21 22 23 28 35
25 29 23 24 16 11 8 9 12 12 13 14 15 10 3 8 4 11 11 7 6 3 1 1 3 6 9 4 7 7 10 3 10 13 14 18 4 10 13 17 19 23 15 8 11 12 17 25 18 16 18 21 22 30
26 31 22 24 15 12 9 10 13 15 13 14 11 4 3 7 11 4 4 3 4 4 4 6 7 6 8 5 1 3 6 4 4 8 8 3 5 17 12 10 26 19 17 15 13 13 17 18 12 10 15 21 20 27
28 25 22 20 15 12 11 14 16 18 11 5 4 3 7 9 2 3 1 2 3 3 9 8 11 6 5 2 4 6 3 4 3 4 4 3 5 1 11 23 11 19 22 24 20 15 13 12 11 13 18 18 16 19
28 23 21 16 14 12 14 18 21 16 7 4 6 11 4 1 2 2 4 1 4 6 5 5 3 7 4 4 1 5 4 0 4 4 3 7 5 11 8 8 7 21 23 25 26 19 16 16 16 19 19 14 12 12
21 18 13 11 10 15 23 24 18 13 11 8 2 1 2 2 6 2 5 5 4 5 5 4 5 2 0 5 5 4 5 3 5 4 6 7 17 12 18 14 14 12 14 21 26 25 23 21 19 20 20 15 10 1
13 7 5 8 14 15 12 10 12 15 7 5 4 6 5 5 8 9 9 8 5 8 10 7 3 1 2 5 2 5 2 2 4 7 5 6 24 26 24 20 22 21 25 26 29 30 30 29 24 21 21 17 14 12
4 2 4 2 4 6 8 14 13 7 4 6 6 6 11 14 9 7 10 9 5 6 0 4 5 0 3 4 1 4 1 2 6 8 7 14 26 34 33 24 22 25 30 30 32 35 34 32 31 25 21 19 17 12
4 9 8 5 3 2 3 5 7 6 6 7 10 6 14 4 9 11 14 14 5 1 5 5 5 3 1 3 1 1 2 6 7 7 22 29 30 35 33 29 25 30 36 40 27 20 31 34 28 28 25 23 19 10
8 5 1 4 5 7 9 10 7 7 7 7 12 20 25 19 17 15 16 11 12 6 3 8 2 2 3 1 3 7 8 6 20 30 27 27 28 19 24 24 27 30 34 42 50 46 29 27 34 23 32 25 24 17
2 6 13 15 12 10 7 10 7 7 10 17 11 10 18 21 16 16 15 19 15 10 10 4 8 2 4 4 5 7 9 15 13 17 19 17 15 18 22 23 21 22 25 28 25 27 30 34 27 33 30 21 25 23
14 18 14 9 10 6 5 7 9 8 18 13 17 23 16 14 15 18 12 22 18 11 12 4 4 6 7 13 12 10 9 7 10 12 13 12 12 15 19 21 24 25 22 22 24 24 31 34 37 29 21 24 22 22
16 16 7 4 8 5 6 7 9 10 10 5 11 9 8 9 10 13 14 25 29 20 10 4 10 10 12 8 10 11 9 11 11 13 12 8 9 14 20 24 24 23 24 21 24 25 28 10 6 15 29 23 16 15
12 3 3 7 6 13 9 8 11 11 10 7 7 6 7 11 9 13 17 21 21 15 18 22 29 18 14 11 8 13 15 18 19 18 16 7 7 14 21 21 20 22 27 25 19 22 27 18 17 27 27 22 18 16
9 12 9 12 7 8 12 15 11 9 8 8 6 6 8 6 5 1 3 15 11 16 21 25 17 17 14 16 15 17 11 16 14 7 5 4 10 12 15 18 20 24 27 22 18 19 19 19 16 26 29 18 18 19
13 7 7 8 7 8 9 10 9 8 5 4 4 5 4 3 2 6 7 9 10 15 18 17 15 12 12 17 15 8 10 5 1 3 5 8 10 10 15 22 22 16 18 18 16 19 38 40 41 30 20 21 21 23
4 5 6 7 12 10 6 8 11 7 6 3 3 3 3 3 8 2 5 7 11 19 25 22 15 14 17 18 9 3 8 7 3 8 11 6 8 13 23 26 23 21 21 24 26 19 15 16 14 11 16 17 17 22
5 9 8 11 9 6 6 6 5 6 7 5 4 5 3 1 2 3 5 7 20 31 27 19 16 14 14 20 17 19 13 10 10 13 14 7 10 16 26 31 33 33 33 26 24 26 20 17 15 9 14 14 15 16
3 10 14 8 6 8 6 5 2 6 5 6 6 1 1 3 2 8 6 7 28 38 30 20 23 25 18 14 23 23 21 18 17 15 17 14 10 7 11 13 18 20 18 18 17 16 15 19 18 11 9 10 9 15
6 10 14 14 11 9 9 9 7 5 6 9 6 5 3 4 8 8 7 7 16 26 19 8 14 20 27 30 31 27 21 19 16 16 19 16 15 11 10 8 7 9 8 6 10 12 13 14 15 14 11 16 19 17
17 8 10 6 10 11 6 5 4 6 5 9 17 8 8 9 7 2 2 8 14 20 20 25 22 19 21 27 27 25 25 20 15 17 16 14 12 9 6 6 4 9 7 3 3 4 9 10 11 13 15 14 13 10
13 14 12 10 10 9 10 13 11 12 10 20 12 8 10 10 7 6 9 17 24 26 35 40 34 30 30 28 25 24 21 18 17 12 14 18 19 17 20 14 4 10 8 7 7 6 7 7 7 7 9 5 1 3
12 23 13 10 9 11 14 17 11 12 17 23 14 9 8 8 11 10 16 28 32 31 31 34 33 30 27 27 30 30 31 26 19 12 8 11 20 24 19 12 7 5 9 3 3 5 4 2 4 3 8 3 1 3
8 18 13 13 11 25 39 36 33 22 16 13 18 14 8 2 5 15 27 24 28 32 34 34 33 30 26 25 28 21 20 21 31 28 14 11 22 22 17 11 9 7 3 4 4 3 2 5 6 6 7 8 4 7
18 23 13 7 9 13 12 11 9 9 7 8 9 11 7 8 9 12 26 35 41 42 34 25 22 19 15 16 16 11 6 6 6 29 33 23 19 18 15 14 16 15 15 12 9 8 7 5 7 6 5 8 6 7
19 16 25 15 8 6 8 8 6 1 1 1 2 3 6 7 8 10 15 33 49 45 36 26 19 10 12 18 20 21 19 14 8 16 29 36 27 18 12 10 14 15 13 16 15 13 11 8 5 4 6 7 7 3
Wind_Direction_850mb
327 320 319 325 313 325 333 334 349 357 357 351 337 307 292 332 11 7 10 17 0 251 203 198 196 177 173 187 152 168 72 4 59 73 119 191 127 220 75 240 198 170 135 177 85 179 257 182 35 188 293 316 314 316
318 317 310 320 298 326 330 326 341 357 356 346 341 332 294 275 297 327 331 345 339 277 249 219 222 235 243 244 183 169 198 165 157 98 125 114 146 168 167 228 212 223 174 181 179 210 149 155 203 229 331 296 299 301
309 304 299 300 289 316 321 305 321 352 353 353 349 345 331 286 292 303 308 323 334 294 274 250 245 238 216 212 218 157 194 184 172 134 142 139 155 162 176 230 177 254 171 177 50 207 209 216 216 209 2 340 325 312
303 297 286 285 278 308 317 304 297 324 341 348 346 344 346 330 327 316 312 325 338 321 328 270 222 236 222 219 230 238 249 175 160 156 128 146 157 194 198 178 169 195 155 191 250 257 245 252 220 227 291 317 318 320
294 287 265 269 270 298 314 306 297 304 312 332 329 331 334 334 340 326 320 339 1 7 288 295 299 259 229 214 224 229 225 190 171 158 135 208 156 137 119 117 233 189 182 174 218 199 156 179 20 314 309 319 318 318
287 266 248 250 260 287 310 306 308 306 309 312 317 312 320 335 337 328 311 16 11 11 328 335 333 326 313 217 220 220 221 203 194 184 188 199 188 167 155 210 250 210 216 221 203 195 206 225 299 326 307 318 319 317
262 239 248 239 251 272 293 307 316 317 321 314 315 314 313 321 323 313 16 345 340 333 330 323 330 306 335 219 208 210 205 218 248 224 224 176 187 183 145 202 230 213 231 230 232 248 269 263 271 286 304 310 314 317
241 236 241 233 241 259 280 303 321 332 335 329 325 323 325 338 75 60 16 318 257 290 13 337 281 327 347 248 195 216 202 209 218 201 307 257 140 210 240 242 246 233 226 227 241 247 259 275 279 286 303 308 317 321
222 227 227 228 235 248 265 298 314 331 332 335 335 341 104 52 44 344 2 31 161 218 19 99 185 279 342 279 221 191 193 191 209 190 200 169 156 216 226 266 240 194 191 162 182 226 251 251 264 285 295 307 309 325
223 218 202 216 231 244 260 291 306 323 322 336 344 15 61 348 341 8 40 57 140 192 243 229 234 269 324 322 335 85 12 16 341 37 351 359 264 260 266 312 298 213 206 211 227 245 246 239 250 266 298 311 310 321
215 194 195 211 232 245 264 283 300 313 305 314 340 322 321 324 5 346 236 168 157 257 221 241 224 270 316 331 11 32 74 60 345 333 354 298 287 65 197 234 227 246 229 232 244 255 273 246 253 279 304 307 293 311
162 183 197 219 237 258 276 282 298 287 237 275 306 295 309 359 60 317 322 290 200 246 216 214 241 259 314 332 286 20 92 117 332 293 330 332 269 199 316 12 264 259 247 241 241 253 275 259 271 273 290 293 283 314
173 186 205 232 262 279 283 283 272 241 219 272 226 351 336 167 34 127 337 311 292 225 221 241 315 334 202 38 74 65 8 33 316 354 320 240 293 325 279 297 308 336 305 265 249 255 265 262 258 265 275 277 267 267
166 186 243 286 292 284 279 252 199 183 209 214 189 325 181 221 241 188 193 201 252 255 303 307 134 103 55 65 91 85 258 111 10 12 274 262 326 331 324 294 286 300 304 294 267 261 258 255 256 258 270 263 254 229
147 351 338 68 81 88 112 134 152 189 243 208 190 223 219 236 238 248 251 263 278 279 351 113 85 89 18 104 73 72 106 260 204 233 238 290 332 332 329 303 289 304 313 307 279 261 258 256 250 254 263 256 241 238
38 99 105 106 92 120 175 214 238 266 248 219 225 246 237 244 258 244 238 258 217 254 136 87 82 28 296 141 127 190 83 241 256 237 302 317 328 329 326 321 292 284 282 286 313 288 261 259 256 253 251 245 228 212
106 133 19 346 316 297 255 246 248 234 244 232 243 240 252 267 256 260 223 204 172 160 145 108 22 266 121 67 294 169 206 232 313 324 324 323 326 337 348 341 328 315 303 294 297 275 278 252 237 284 242 233 217 199
17 312 304 306 296 297 266 212 243 240 254 245 239 255 243 244 249 265 226 191 168 186 154 167 143 108 235 218 255 236 264 317 334 333 338 339 345 347 346 344 334 319 314 319 315 279 285 272 235 248 241 222 212 201
323 313 314 293 266 244 252 231 226 257 247 261 261 268 271 264 247 247 230 195 167 141 110 322 143 199 231 217 232 254 269 268 315 328 337 340 342 347 347 344 339 337 339 349 342 311 291 273 259 228 214 225 205 199
323 317 314 284 240 236 250 230 222 256 261 251 255 257 254 249 284 208 182 183 161 134 105 212 225 231 230 261 266 248 247 252 266 277 294 303 335 355 357 3 4 11 7 3 9 15 345 307 86 202 193 195 172 182
331 344 319 328 269 233 262 231 234 247 279 268 285 264 273 277 259 210 201 185 185 190 172 246 257 252 241 221 220 217 247 263 282 284 311 316 0 10 10 11 11 5 6 13 1 7 22 6 24 110 106 108 120 125
296 308 293 299 253 249 258 233 244 286 262 266 253 248 262 270 277 332 192 189 216 210 217 243 215 222 229 224 223 232 257 290 284 305 336 49 21 25 14 1 353 356 4 16 5 353 345 38 118 121 125 126 117 113
274 269 255 245 253 243 256 225 239 229 205 228 214 252 238 261 226 287 239 230 226 199 201 190 194 206 214 207 217 241 298 310 127 102 96 39 42 44 7 344 335 344 23 31 35 41 61 64 94 122 124 112 125 125
214 246 243 241 222 264 254 237 221 217 181 206 229 266 235 251 311 238 256 250 207 191 188 191 205 201 183 179 179 146 98 80 64 108 99 81 75 54 26 34 54 63 65 72 60 51 95 79 80 97 84 105 119 137
247 228 226 252 233 249 254 262 209 167 221 207 220 276 282 318 1 270 243 252 193 182 186 192 201 197 178 162 149 137 111 84 82 115 113 103 81 83 73 71 74 78 74 74 86 68 78 77 83 67 91 74 86 125
201 217 196 224 239 198 247 284 235 200 170 197 226 220 190 67 289 248 240 240 198 192 191 204 201 181 162 145 155 152 141 119 93 103 124 101 89 99 81 90 79 74 66 67 60 50 60 60 58 62 73 61 100 137
246 259 229 232 255 275 286 269 262 218 208 202 183 159 138 238 247 251 248 228 198 200 194 184 194 193 171 152 145 144 138 118 97 91 118 118 101 105 61 52 91 67 58 69 64 52 38 37 47 61 93 85 116 106
236 255 200 223 230 237 249 265 245 228 211 178 150 183 198 210 245 275 230 173 182 182 167 158 165 166 165 159 157 161 165 161 134 105 117 151 166 168 148 117 60 355 4 69 94 65 45 66 64 74 85 102 90 81
227 219 214 249 243 250 244 218 233 218 211 185 181 204 223 215 253 285 257 193 185 184 169 164 169 170 175 176 183 187 193 188 181 155 143 155 158 157 149 139 77 9 56 99 101 86 87 62 52 73 86 112 81 52
237 212 215 222 199 224 237 225 247 263 244 227 234 257 254 266 286 233 189 186 186 186 180 172 175 180 187 187 194 201 215 230 244 244 169 181 172 158 153 158 154 86 64 63 58 76 92 25 17 34 21 60 70 355
223 195 210 225 239 247 252 263 268 264 241 239 245 243 253 286 226 198 188 195 186 180 181 185 194 203 210 215 215 211 222 239 243 236 218 171 175 176 175 179 204 218 202 96 102 103 32 349 320 324 3 14 30 27
205 208 202 219 248 240 238 216 213 221 240 235 225 213 190 169 154 171 217 220 203 202 200 208 204 208 209 222 222 217 240 245 241 228 210 197 195 194 198 209 216 218 233 238 245 259 288 316 334 332 338 359 350 5
210 216 217 239 236 222 207 194 200 266 122 353 291 238 206 205 220 206 226 222 222 220 216 229 230 236 250 243 236 238 245 252 229 189 204 210 221 213 210 207 196 191 215 229 241 260 271 276 317 15 17 10 354 5